Regional Weather Roundup
Issued by NWS Glasgow, MT

Home | Current Version | Previous Version | Text Only | Print | Product List | Glossary On
Versions: 1 2 3 4 5 6 7 8 9 10 11 12 13 14 15 16 17 18 19 20 21 22 23 24 25 26 27 28 29 30 31 32 33 34 35 36 37 38 39 40 41 42 43 44 45 46 47 48 49 50
000
ASUS45 KGGW 261715
RWRGGW
HOURLY WEATHER ROUNDUP FOR NORTHEAST MONTANA
NATIONAL WEATHER SERVICE GLASGOW MONTANA
1100 AM MDT SUN APR 26 2015

NOTE: "FAIR" INDICATES FEW OR NO CLOUDS BELOW 12,000 FEET WITH NO
SIGNIFICANT WEATHER AND/OR OBSTRUCTIONS TO VISISBILITY.

NORTHEAST MONTANA


CITY           SKY/WX    TMP DP  RH WIND       PRES   REMARKS
GLASGOW        CLOUDY    41  32  70 NW13      30.11S
PLENTYWOOD       N/A    N/A N/A N/A N12G20      N/A
WOLF POINT     CLOUDY    44  34  67 NW9       30.12R
JORDAN           N/A     44  33  65 NW15      30.12R
WINNETT          N/A     39  30  70 NW13        N/A
SIDNEY         CLOUDY    45  34  65 W6        30.12R
GLENDIVE       CLOUDY    45  36  70 N14       30.10S
MALTA            N/A     39  30  70 W9          N/A
SCOBEY           N/A     37  29  73 NW9       30.09R
OPHEIM           N/A     32  32 100 NW8       30.08R

FORT PECK REPORTS


CITY           SKY/WX    TMP DP  RH WIND       PRES   REMARKS
FORT PECK        N/A     40  33  76 W14         N/A
THE PINES        N/A     39  30  70 NW8G16      N/A

SOUTHEAST MONTANA


CITY           SKY/WX    TMP DP  RH WIND       PRES   REMARKS
BILLINGS       CLOUDY    39  33  79 NE18      30.06R
MILES CITY     CLOUDY    45  38  76 N14       30.08R
BAKER          CLOUDY    45  38  76 NE15      30.07R
LIVINGSTON     MIX PCPN  37  34  89 E18       30.02R

CENTRAL MONTANA


CITY           SKY/WX    TMP DP  RH WIND       PRES   REMARKS
HAVRE          CLOUDY    37  28  70 NW10      30.17R
LEWISTOWN      CLOUDY    34  28  79 NW10      30.12R
GREAT FALLS    CLOUDY    33  25  72 NW5       30.16R
CUT BANK       CLOUDY    35  24  64 NW9       30.16R
HELENA         CLOUDY    35  28  75 NW8       30.12R
BUTTE          LGT SNOW  31  28  89 W13       30.04R FOG
BOZEMAN        CLOUDY    42  34  73 NW7       30.00R

WESTERN MONTANA


CITY           SKY/WX    TMP DP  RH WIND       PRES   REMARKS
MISSOULA       LGT RAIN  39  36  89 NW6       30.13R
KALISPELL      NOT AVBL

NORTH DAKOTA


CITY           SKY/WX    TMP DP  RH WIND       PRES   REMARKS
WILLISTON      CLOUDY    46  35  65 N7        30.10R
DICKINSON      LGT RAIN  42  39  89 N7        30.06R FOG
MINOT          CLOUDY    45  41  86 NW8       30.08R
BISMARCK       CLOUDY    50  46  86 SE3       30.08R

SOUTHERN SASKATCHEWAN


CITY           SKY/WX    TMP DP  RH WIND       PRES   REMARKS
REGINA         CLOUDY    37  32  81 W16G23    30.09R
ESTEVAN        CLOUDY    39  34  81 NW12G17   30.10R
SWIFT CURRENT  CLOUDY    32  30  93 NW15G21   30.10R




USA.gov is the U.S. government's official web portal to all federal, state and local government web resources and services.